Wind_Speed
43 44 44 43 43 43 43 43 44 44 44 45 46 47 47 47 48 48 48 48 49 49 48 48 47 46 45 45 44 44 44 44 43 43 44 45 45 45 45 46 46 47
45 45 45 45 44 43 43 43 44 44 44 44 45 46 47 48 49 49 49 50 51 51 51 50 49 48 47 46 46 45 45 44 44 45 46 46 46 46 46 47 47 48
46 47 46 45 44 44 43 44 44 44 43 43 43 43 45 46 47 47 48 50 51 52 51 51 50 49 48 47 47 46 45 44 45 45 46 47 47 47 47 48 48 48
49 49 47 46 45 44 44 44 44 44 43 43 42 42 43 44 44 44 45 48 49 49 50 50 49 48 48 48 47 46 45 44 44 45 46 47 48 48 48 48 49 49
51 51 50 48 47 46 46 45 45 44 44 43 43 43 43 44 44 44 45 46 47 47 48 48 48 48 47 47 47 45 45 44 44 45 46 47 48 49 49 49 49 48
53 53 53 52 51 50 48 47 46 46 46 45 45 45 45 45 45 45 45 45 45 46 46 47 47 46 46 46 46 45 45 45 46 46 47 47 49 49 49 49 48 48
54 55 55 55 54 53 52 50 49 48 48 47 47 47 47 47 47 47 47 46 46 46 46 46 46 46 46 46 47 47 47 48 48 48 47 47 48 49 49 49 49 49
55 56 56 57 56 56 55 55 53 52 51 50 49 48 48 48 48 48 48 47 47 47 47 47 47 47 48 48 49 49 49 49 49 48 48 47 48 49 49 50 50 50
56 56 57 57 57 57 57 57 57 56 55 53 51 50 50 50 50 49 49 49 49 48 48 48 49 49 50 50 50 50 50 50 50 49 49 49 49 49 50 51 51 51
57 57 58 58 58 58 58 58 58 58 57 55 54 53 52 52 52 51 51 50 50 49 49 50 50 51 51 51 52 52 52 52 51 51 51 51 51 51 52 52 52 52
58 59 59 59 59 59 59 59 58 58 58 56 55 54 53 53 53 53 53 52 52 51 51 52 52 52 52 52 53 53 52 53 52 52 53 52 52 52 53 54 53 52
60 61 61 61 61 61 60 60 58 57 57 56 55 55 54 54 54 55 55 55 54 54 54 54 53 53 54 54 54 53 53 53 53 53 54 54 54 54 54 55 54 53
62 62 62 62 63 63 63 62 60 58 57 55 55 55 56 56 56 56 57 57 57 56 56 56 56 56 55 55 55 55 54 55 55 55 55 55 55 55 55 54 54 52
64 64 64 64 64 65 65 65 63 61 59 57 57 57 58 58 58 59 59 59 59 59 58 58 58 58 58 58 57 57 57 57 57 57 57 57 56 56 55 54 53 52
61 63 64 64 65 66 66 67 67 66 64 63 63 63 62 62 62 61 62 62 62 61 61 60 60 61 61 61 61 60 60 60 59 59 59 58 57 56 55 53 52 52
56 58 59 61 62 64 65 66 68 68 68 69 69 69 69 68 67 66 65 65 65 65 64 64 64 64 64 64 64 63 62 61 61 60 59 58 57 55 54 52 52 53
54 54 54 55 56 58 59 61 63 64 66 67 69 70 71 71 70 69 69 69 69 69 69 68 67 67 67 66 65 64 63 62 61 60 59 58 56 54 53 53 53 53
57 56 54 54 54 54 55 55 56 58 59 61 63 65 67 68 69 70 71 72 72 72 71 71 69 69 68 68 67 66 65 63 62 61 59 57 55 54 54 54 54 53
61 60 59 57 57 56 56 55 55 56 56 57 59 60 62 63 66 69 70 72 72 72 71 70 69 68 67 67 66 66 65 64 63 62 60 58 58 57 56 56 54 53
66 66 65 64 63 61 60 58 58 58 58 58 59 60 61 62 63 65 67 69 70 70 70 70 69 68 67 66 66 65 65 65 64 64 63 62 61 60 59 57 55 54
69 69 69 70 69 68 65 63 63 62 62 61 61 61 63 64 65 65 66 67 69 69 69 69 69 70 69 69 68 68 67 66 66 66 65 65 64 63 62 61 59 57
71 71 71 72 73 73 72 70 69 67 66 66 63 62 62 64 66 67 67 67 68 68 68 68 68 69 70 70 70 70 70 69 69 68 68 67 67 66 65 64 62 60
72 72 72 72 73 74 74 73 73 72 71 70 68 65 63 63 65 67 68 68 69 70 69 69 69 70 70 71 72 72 71 71 70 70 69 69 69 68 67 65 64 62
74 73 72 72 72 72 73 73 73 73 73 72 70 69 68 66 65 67 69 69 69 70 70 70 70 70 70 71 71 71 70 70 69 69 68 68 67 65 64 63 62 60
76 76 75 73 73 72 72 73 73 73 73 73 72 71 72 71 69 69 70 71 71 71 70 70 69 69 69 69 68 68 67 66 66 66 65 64 63 62 61 61 59 58
77 78 78 77 76 75 74 74 73 73 73 73 74 73 74 74 73 72 73 74 74 73 72 71 70 69 68 67 65 64 64 63 63 63 62 61 60 60 60 59 58 56
Wind_Direction
272 272 272 272 271 270 270 270 270 270 270 271 272 273 273 273 274 275 276 276 277 277 278 278 279 280 281 281 282 283 283 284 283 283 284 285 286 287 287 289 289 289
270 271 272 272 271 271 271 271 271 270 270 271 271 272 273 274 274 275 276 276 276 277 278 278 279 279 279 280 281 281 282 283 282 282 283 284 285 286 286 287 287 287
268 269 269 270 270 270 270 271 271 272 272 271 270 271 272 273 274 275 276 276 276 277 278 278 279 279 279 279 279 280 281 281 281 281 282 283 284 285 285 285 285 286
266 267 268 269 269 270 269 269 270 271 271 271 271 271 272 273 274 275 275 275 276 277 278 279 279 279 279 278 279 279 280 280 280 280 281 282 283 283 284 284 284 285
264 265 266 267 268 268 268 268 268 268 269 270 271 272 272 273 274 275 275 275 276 277 277 278 278 279 279 279 279 279 279 280 280 280 280 281 282 282 283 283 283 284
263 263 264 265 266 267 267 267 267 267 268 269 270 271 272 273 274 275 276 276 277 277 277 277 277 278 279 279 280 280 281 282 281 281 281 281 281 282 283 283 283 283
262 262 263 264 265 266 266 266 266 266 267 267 268 270 272 273 275 276 277 278 278 278 277 277 277 277 278 280 281 282 283 283 283 282 282 281 281 282 282 282 282 282
260 261 262 263 264 265 265 266 266 266 266 267 268 270 272 273 274 276 277 278 278 278 277 277 277 277 279 280 281 282 282 282 282 282 281 281 281 281 281 281 280 281
259 260 261 262 263 264 264 265 265 265 266 267 268 269 271 273 274 275 276 277 277 278 278 277 277 277 278 279 280 280 281 281 281 280 280 280 280 280 279 279 279 280
258 259 259 260 261 262 263 263 264 265 265 266 267 268 270 271 273 274 275 276 276 277 277 276 276 276 277 278 278 279 279 280 279 279 279 280 280 279 279 279 279 280
257 257 258 259 259 260 261 262 262 263 264 265 266 267 269 270 272 273 274 274 275 276 276 275 276 276 276 277 278 278 278 279 278 278 278 279 279 279 278 278 279 280
257 257 257 258 258 259 259 260 261 261 262 264 265 267 268 270 271 273 273 274 275 275 276 276 276 277 277 277 278 278 278 278 278 277 277 278 278 278 278 279 279 280
259 258 258 258 258 258 258 259 259 260 262 263 266 268 269 271 272 273 274 274 275 275 276 276 277 277 278 278 278 278 277 277 277 277 277 277 277 278 278 279 280 281
262 261 261 260 259 259 259 259 259 260 261 263 266 269 271 272 273 274 274 275 275 275 275 276 276 277 277 278 277 277 277 277 277 277 277 277 277 278 279 280 281 282
264 264 264 263 262 261 261 260 261 262 263 265 267 269 271 272 273 273 274 274 275 275 275 275 275 276 276 276 276 276 276 276 276 277 277 278 279 280 281 282 282 283
267 268 268 268 267 267 265 264 264 265 265 267 269 271 272 273 273 272 272 272 272 272 273 273 274 275 275 275 275 275 275 275 276 277 278 279 280 281 282 282 283 283
269 270 270 271 271 271 271 270 269 269 268 269 269 270 271 272 272 271 270 269 269 270 271 272 274 275 276 276 277 277 277 277 278 278 279 280 281 282 282 282 282 283
269 269 270 271 272 272 273 273 273 273 273 272 271 271 270 270 270 269 269 269 269 270 272 273 274 276 277 278 279 280 280 280 280 281 281 282 282 282 282 283 283 283
270 269 269 270 271 271 271 272 273 273 274 275 275 275 274 273 272 271 270 271 271 272 273 274 275 276 278 279 280 281 281 282 282 282 283 283 283 284 284 283 283 282
269 270 270 270 270 269 269 269 270 271 271 272 274 276 277 277 275 274 274 274 274 274 275 275 276 278 279 280 281 282 282 282 282 283 283 283 284 284 284 284 283 283
264 266 268 269 269 269 269 268 267 267 268 268 269 271 273 276 276 276 275 276 276 276 277 277 279 280 281 281 282 282 283 283 284 284 284 285 285 285 285 285 284 284
261 263 264 265 267 269 269 269 267 266 267 267 267 267 268 270 272 273 274 274 275 276 277 278 280 281 281 282 282 283 283 284 285 285 285 285 285 285 285 285 285 285
262 262 263 263 265 266 268 267 267 266 266 266 266 266 265 264 266 269 270 271 272 273 274 276 277 279 280 281 281 282 282 283 283 284 284 284 284 285 285 285 285 285
263 263 263 263 264 265 266 265 265 264 264 264 264 264 263 261 261 263 266 267 268 269 271 272 274 276 277 278 279 280 281 282 282 283 283 283 284 284 285 285 286 285
264 264 264 264 264 265 265 265 265 265 265 265 264 264 263 262 260 261 263 264 265 267 269 270 272 274 276 277 279 280 280 281 281 282 283 283 284 284 285 285 285 285
263 264 265 266 266 266 266 266 266 267 267 267 266 265 265 264 262 261 262 264 265 266 268 270 272 274 277 279 280 281 282 282 282 283 283 283 283 284 284 284 284 283
Height
5806 5805 5805 5805 5805 5805 5804 5804 5804 5803 5803 5802 5802 5801 5800 5800 5799 5799 5798 5797 5795 5795 5795 5795 5794 5794 5794 5793 5793 5792 5791 5791 5791 5790 5789 5788 5787 5786 5785 5784 5782 5781
5802 5801 5801 5800 5800 5800 5800 5799 5799 5798 5799 5798 5797 5797 5796 5795 5794 5794 5793 5792 5790 5789 5789 5789 5789 5789 5789 5788 5788 5787 5787 5786 5786 5785 5784 5783 5782 5781 5780 5779 5777 5776
5797 5796 5796 5796 5796 5795 5795 5794 5794 5794 5794 5794 5793 5792 5791 5790 5790 5789 5788 5786 5785 5784 5784 5784 5784 5784 5783 5783 5782 5782 5782 5781 5781 5780 5779 5778 5777 5776 5775 5774 5772 5771
5792 5791 5791 5791 5791 5790 5790 5789 5789 5789 5789 5788 5788 5787 5787 5786 5785 5785 5784 5782 5781 5780 5779 5779 5778 5778 5778 5778 5777 5777 5777 5777 5776 5775 5774 5773 5772 5771 5770 5769 5768 5767
5787 5786 5786 5786 5786 5785 5784 5784 5784 5784 5784 5783 5783 5782 5781 5781 5780 5780 5779 5778 5777 5776 5775 5774 5773 5773 5773 5772 5772 5772 5772 5772 5771 5770 5769 5769 5767 5766 5765 5764 5763 5762
5781 5781 5781 5781 5781 5780 5780 5779 5779 5779 5779 5778 5777 5776 5776 5776 5775 5775 5774 5773 5773 5772 5771 5770 5769 5768 5768 5768 5767 5767 5767 5767 5766 5765 5764 5764 5762 5761 5760 5759 5758 5757
5775 5775 5775 5775 5775 5775 5775 5775 5774 5773 5773 5772 5772 5771 5771 5771 5770 5770 5769 5769 5768 5767 5766 5765 5765 5764 5764 5763 5763 5762 5762 5761 5760 5759 5759 5758 5757 5755 5754 5753 5752 5751
5769 5769 5769 5769 5769 5769 5769 5769 5768 5768 5767 5767 5767 5766 5766 5765 5765 5765 5764 5763 5763 5762 5761 5761 5760 5759 5759 5759 5758 5757 5756 5755 5755 5754 5753 5753 5752 5750 5749 5747 5746 5746
5763 5763 5763 5763 5763 5763 5763 5763 5762 5762 5762 5761 5762 5761 5760 5760 5760 5759 5759 5758 5757 5757 5756 5756 5755 5754 5753 5753 5752 5752 5751 5750 5749 5748 5748 5747 5746 5745 5743 5742 5741 5740
5756 5756 5756 5757 5757 5757 5757 5756 5756 5756 5756 5756 5756 5755 5755 5754 5754 5754 5753 5753 5752 5752 5751 5750 5749 5748 5748 5747 5746 5746 5745 5744 5744 5743 5742 5741 5740 5739 5738 5736 5735 5734
5749 5749 5749 5750 5750 5750 5750 5750 5750 5750 5750 5750 5749 5749 5749 5749 5748 5748 5747 5747 5747 5746 5745 5743 5743 5742 5742 5741 5740 5740 5739 5738 5738 5737 5736 5735 5734 5733 5731 5730 5729 5729
5743 5743 5743 5743 5743 5743 5744 5744 5744 5744 5744 5744 5743 5743 5743 5743 5743 5742 5741 5741 5741 5740 5739 5738 5737 5736 5735 5735 5734 5733 5733 5732 5731 5730 5729 5728 5727 5726 5725 5723 5723 5723
5736 5736 5737 5737 5737 5737 5737 5737 5738 5738 5738 5738 5737 5737 5737 5736 5737 5736 5735 5735 5734 5734 5733 5732 5731 5730 5729 5728 5727 5726 5726 5725 5724 5724 5723 5722 5721 5719 5718 5717 5717 5716
5728 5729 5730 5730 5730 5731 5731 5731 5731 5732 5732 5732 5732 5731 5731 5730 5730 5730 5729 5729 5728 5728 5727 5726 5725 5724 5723 5721 5720 5719 5719 5718 5717 5716 5716 5715 5714 5713 5712 5711 5711 5710
5721 5722 5722 5723 5723 5724 5724 5725 5725 5725 5726 5726 5726 5725 5725 5724 5724 5724 5724 5723 5722 5721 5721 5720 5719 5718 5716 5715 5713 5712 5711 5711 5710 5710 5709 5708 5708 5707 5707 5706 5705 5704
5714 5714 5715 5716 5717 5717 5718 5718 5719 5719 5719 5719 5719 5718 5718 5718 5717 5717 5717 5716 5715 5715 5714 5713 5713 5711 5709 5708 5706 5705 5704 5704 5704 5703 5702 5702 5702 5701 5701 5700 5699 5698
5707 5708 5709 5709 5710 5710 5711 5712 5712 5712 5712 5712 5711 5711 5710 5710 5710 5710 5709 5709 5708 5708 5707 5707 5706 5705 5703 5701 5700 5699 5698 5697 5697 5697 5696 5696 5695 5695 5694 5693 5692 5692
5700 5701 5702 5702 5703 5703 5704 5704 5704 5705 5704 5704 5703 5703 5703 5703 5703 5702 5701 5701 5700 5700 5700 5700 5699 5698 5696 5694 5693 5693 5692 5691 5691 5690 5690 5690 5689 5688 5688 5687 5686 5685
5691 5692 5694 5695 5695 5696 5696 5697 5697 5697 5697 5696 5695 5695 5695 5696 5695 5694 5694 5694 5693 5693 5693 5692 5692 5690 5688 5687 5686 5685 5684 5684 5684 5684 5683 5683 5682 5681 5680 5679 5679 5678
5683 5684 5686 5686 5686 5687 5688 5689 5688 5689 5689 5688 5688 5688 5688 5688 5688 5688 5687 5686 5686 5686 5685 5685 5685 5683 5681 5680 5679 5678 5677 5676 5676 5676 5676 5676 5675 5674 5673 5672 5671 5671
5674 5676 5677 5677 5677 5677 5679 5680 5679 5679 5679 5679 5680 5681 5680 5680 5679 5679 5680 5679 5678 5677 5677 5678 5677 5674 5672 5672 5671 5670 5669 5668 5668 5668 5668 5668 5667 5666 5665 5664 5664 5663
5665 5666 5667 5667 5668 5668 5670 5670 5669 5670 5670 5669 5670 5672 5672 5672 5671 5670 5670 5670 5669 5668 5668 5669 5667 5665 5664 5664 5663 5661 5660 5660 5660 5660 5660 5660 5659 5658 5657 5656 5656 5655
5655 5656 5657 5658 5658 5659 5661 5660 5660 5660 5660 5660 5661 5662 5662 5663 5663 5662 5661 5661 5660 5659 5659 5659 5658 5656 5656 5655 5654 5653 5652 5652 5652 5652 5652 5651 5651 5650 5649 5648 5648 5647
5644 5646 5647 5648 5649 5650 5651 5650 5650 5650 5650 5650 5651 5652 5652 5652 5653 5653 5652 5651 5651 5650 5650 5650 5649 5648 5646 5646 5646 5644 5644 5644 5643 5643 5643 5643 5642 5641 5640 5639 5639 5638
5632 5634 5637 5638 5639 5640 5640 5640 5641 5641 5641 5640 5641 5642 5642 5642 5643 5644 5642 5641 5641 5641 5641 5641 5640 5639 5637 5637 5636 5635 5635 5635 5634 5634 5634 5633 5632 5632 5631 5631 5630 5629
5623 5624 5626 5627 5628 5629 5630 5631 5631 5632 5631 5631 5631 5632 5632 5632 5633 5634 5634 5632 5631 5631 5631 5631 5631 5630 5628 5628 5627 5627 5626 5626 5625 5625 5625 5624 5623 5623 5623 5623 5622 5621